| time (UTC) | temp C | wind direction | speed KPH | gust KPH | rain 1hr cm | rain 24hr cm | rain mn cm | humidity % | barometer mb |
| 20260505130240 | 22 | 203 | 11.3 | 16.1 | 0.00 | 0.00 | 0.00 | 88 | 1006.1 |
| 20260505124731 | 21 | 210 | 6.4 | 9.7 | 0.00 | 0.00 | 0.00 | 88 | 1006.4 |
| 20260505124228 | 21 | 175 | 8.0 | 12.9 | 0.00 | 0.00 | 0.00 | 88 | 1006.4 |
| 20260505123723 | 21 | 186 | 9.7 | 11.3 | 0.00 | 0.00 | 0.00 | 88 | 1006.1 |
| 20260505123220 | 21 | 202 | 6.4 | 9.7 | 0.00 | 0.00 | 0.00 | 88 | 1005.7 |
| 20260505122716 | 21 | 153 | 6.4 | 9.7 | 0.00 | 0.00 | 0.00 | 88 | 1005.7 |
| 20260505122214 | 21 | 183 | 6.4 | 9.7 | 0.00 | 0.00 | 0.00 | 89 | 1005.6 |
| 20260505121710 | 21 | 186 | 8.0 | 11.3 | 0.00 | 0.00 | 0.00 | 89 | 1006.0 |
| 20260505121207 | 21 | 196 | 8.0 | 9.7 | 0.00 | 0.00 | 0.00 | 88 | 1005.8 |
| 20260505120703 | 21 | 167 | 6.4 | 9.7 | 0.00 | 0.00 | 0.00 | 88 | 1005.8 |
| 20260505120159 | 21 | 167 | 8.0 | 12.9 | 0.00 | 0.00 | 0.00 | 88 | 1005.6 |
| 20260505115653 | 21 | 197 | 8.0 | 11.3 | 0.00 | 0.00 | 0.00 | 89 | 1005.7 |
| 20260505115151 | 21 | 173 | 11.3 | 16.1 | 0.00 | 0.00 | 0.00 | 89 | 1005.7 |
| 20260505114648 | 21 | 166 | 8.0 | 11.3 | 0.00 | 0.00 | 0.00 | 88 | 1005.7 |
| 20260505114144 | 21 | 150 | 12.9 | 14.5 | 0.00 | 0.00 | 0.00 | 88 | 1005.7 |
| 20260505113640 | 21 | 180 | 8.0 | 11.3 | 0.00 | 0.00 | 0.00 | 88 | 1005.5 |
| 20260505113137 | 21 | 192 | 6.4 | 9.7 | 0.00 | 0.00 | 0.00 | 88 | 1005.5 |
| 20260505112633 | 21 | 190 | 8.0 | 9.7 | 0.00 | 0.00 | 0.00 | 88 | 1005.4 |
| 20260505112132 | 21 | 194 | 3.2 | 3.2 | 0.00 | 0.00 | 0.00 | 88 | 1005.4 |
| 20260505111631 | 21 | 144 | 14.5 | 17.7 | 0.00 | 0.00 | 0.00 | 88 | 1005.7 |
| 20260505111127 | 21 | 192 | 9.7 | 14.5 | 0.00 | 0.00 | 0.00 | 88 | 1005.6 |
| 20260505110624 | 21 | 187 | 8.0 | 9.7 | 0.00 | 0.00 | 0.00 | 88 | 1005.6 |
| 20260505110121 | 21 | 209 | 4.8 | 8.0 | 0.00 | 0.00 | 0.00 | 88 | 1005.3 |
| 20260505102057 | 21 | 183 | 12.9 | 16.1 | 0.00 | 0.00 | 0.00 | 87 | 1005.5 |
| 20260505101555 | 21 | 193 | 12.9 | 16.1 | 0.00 | 0.00 | 0.00 | 87 | 1005.7 |
| 20260505101051 | 21 | 194 | 6.4 | 8.0 | 0.00 | 0.00 | 0.00 | 87 | 1005.4 |
| 20260505100548 | 21 | 153 | 4.8 | 4.8 | 0.00 | 0.00 | 0.00 | 87 | 1005.6 |
| 20260505100045 | 21 | 155 | 4.8 | 8.0 | 0.00 | 0.00 | 0.00 | 87 | 1005.5 |
| 20260505095541 | 21 | 181 | 8.0 | 9.7 | 0.00 | 0.00 | 0.00 | 87 | 1005.7 |
| 20260505095037 | 21 | 180 | 9.7 | 14.5 | 0.00 | 0.00 | 0.00 | 87 | 1005.7 |
| 20260505094534 | 21 | 192 | 12.9 | 17.7 | 0.00 | 0.00 | 0.00 | 87 | 1006.0 |
| 20260505094030 | 21 | 190 | 8.0 | 11.3 | 0.00 | 0.00 | 0.00 | 87 | 1005.9 |
| 20260505093527 | 21 | 191 | 11.3 | 16.1 | 0.00 | 0.00 | 0.00 | 87 | 1005.9 |
| 20260505093024 | 21 | 184 | 4.8 | 4.8 | 0.00 | 0.00 | 0.00 | 87 | 1005.8 |
| 20260505092521 | 21 | 170 | 8.0 | 11.3 | 0.00 | 0.00 | 0.00 | 87 | 1006.1 |
| 20260505092020 | 21 | 145 | 4.8 | 8.0 | 0.00 | 0.00 | 0.00 | 87 | 1006.0 |
| 20260505091516 | 21 | 195 | 6.4 | 9.7 | 0.00 | 0.00 | 0.00 | 87 | 1006.0 |
| 20260505091014 | 21 | 177 | 6.4 | 11.3 | 0.00 | 0.00 | 0.00 | 87 | 1006.2 |
| 20260505090512 | 21 | 219 | 3.2 | 4.8 | 0.00 | 0.00 | 0.00 | 88 | 1006.1 |
| 20260505090010 | 21 | 166 | 6.4 | 11.3 | 0.00 | 0.00 | 0.00 | 88 | 1006.0 |
| 20260505085508 | 21 | 130 | 12.9 | 20.9 | 0.00 | 0.00 | 0.00 | 88 | 1006.2 |
| 20260505085006 | 21 | 206 | 8.0 | 14.5 | 0.00 | 0.00 | 0.00 | 88 | 1006.2 |
| 20260505084503 | 21 | 193 | 4.8 | 14.5 | 0.00 | 0.00 | 0.00 | 88 | 1005.9 |
| 20260505084001 | 21 | 159 | 11.3 | 14.5 | 0.00 | 0.00 | 0.00 | 88 | 1006.0 |
| 20260505083458 | 21 | 211 | 9.7 | 11.3 | 0.00 | 0.00 | 0.00 | 88 | 1006.0 |
| 20260505082954 | 21 | 180 | 6.4 | 9.7 | 0.00 | 0.00 | 0.00 | 88 | 1006.2 |
| 20260505082450 | 21 | 178 | 12.9 | 17.7 | 0.00 | 0.00 | 0.00 | 88 | 1006.1 |
| 20260505081947 | 21 | 190 | 6.4 | 8.0 | 0.00 | 0.00 | 0.00 | 88 | 1006.3 |
| 20260505081444 | 21 | 159 | 6.4 | 9.7 | 0.00 | 0.00 | 0.00 | 87 | 1006.1 |
| 20260505080940 | 21 | 197 | 6.4 | 8.0 | 0.00 | 0.00 | 0.00 | 87 | 1006.2 |
| 20260505080437 | 21 | 179 | 11.3 | 16.1 | 0.00 | 0.00 | 0.00 | 87 | 1006.1 |
| 20260505075932 | 21 | 178 | 8.0 | 12.9 | 0.00 | 0.00 | 0.00 | 87 | 1006.2 |
| 20260505075429 | 21 | 152 | 11.3 | 14.5 | 0.00 | 0.00 | 0.00 | 87 | 1006.5 |
| 20260505074927 | 21 | 160 | 3.2 | 4.8 | 0.00 | 0.00 | 0.00 | 86 | 1006.4 |
| 20260505074424 | 21 | 191 | 8.0 | 11.3 | 0.00 | 0.00 | 0.00 | 86 | 1006.5 |
| 20260505073921 | 21 | 172 | 9.7 | 12.9 | 0.00 | 0.00 | 0.00 | 86 | 1006.7 |
| 20260505073419 | 21 | 170 | 4.8 | 8.0 | 0.00 | 0.00 | 0.00 | 86 | 1006.8 |
| 20260505072916 | 21 | 173 | 8.0 | 12.9 | 0.00 | 0.00 | 0.00 | 86 | 1006.9 |
| 20260505072412 | 22 | 169 | 4.8 | 8.0 | 0.00 | 0.00 | 0.00 | 85 | 1007.0 |
| 20260505071908 | 22 | 222 | 8.0 | 11.3 | 0.00 | 0.00 | 0.00 | 85 | 1006.9 |
| 20260505071404 | 22 | 179 | 11.3 | 14.5 | 0.00 | 0.00 | 0.00 | 85 | 1007.0 |
| 20260505070902 | 22 | 194 | 4.8 | 4.8 | 0.00 | 0.00 | 0.00 | 84 | 1006.7 |
| 20260505070358 | 22 | 163 | 4.8 | 8.0 | 0.00 | 0.00 | 0.00 | 84 | 1006.9 |
| 20260505065854 | 22 | 157 | 12.9 | 20.9 | 0.00 | 0.00 | 0.00 | 84 | 1007.1 |
| 20260505065351 | 22 | 158 | 12.9 | 17.7 | 0.00 | 0.00 | 0.00 | 83 | 1007.1 |
| 20260505064848 | 22 | 199 | 14.5 | 20.9 | 0.00 | 0.00 | 0.00 | 83 | 1007.2 |
| 20260505064345 | 22 | 214 | 17.7 | 27.4 | 0.00 | 0.00 | 0.00 | 83 | 1007.4 |
| 20260505063844 | 22 | 174 | 4.8 | 8.0 | 0.00 | 0.00 | 0.00 | 83 | 1007.2 |
| 20260505063339 | 22 | 181 | 8.0 | 14.5 | 0.00 | 0.00 | 0.00 | 83 | 1007.2 |
| 20260505062836 | 22 | 193 | 11.3 | 14.5 | 0.00 | 0.00 | 0.00 | 82 | 1007.3 |
| 20260505062333 | 22 | 178 | 8.0 | 11.3 | 0.00 | 0.00 | 0.00 | 82 | 1007.3 |
| 20260505061830 | 22 | 226 | 8.0 | 11.3 | 0.00 | 0.00 | 0.00 | 82 | 1007.3 |
| 20260505061328 | 22 | 166 | 6.4 | 9.7 | 0.00 | 0.00 | 0.00 | 82 | 1007.6 |
| 20260505060825 | 22 | 202 | 9.7 | 11.3 | 0.00 | 0.00 | 0.00 | 81 | 1007.3 |
| 20260505060322 | 22 | 153 | 6.4 | 9.7 | 0.00 | 0.00 | 0.00 | 81 | 1007.4 |
| 20260505055818 | 22 | 201 | 3.2 | 4.8 | 0.00 | 0.00 | 0.00 | 81 | 1007.4 |
| 20260505055314 | 22 | 204 | 9.7 | 12.9 | 0.00 | 0.00 | 0.00 | 81 | 1007.7 |
| 20260505054812 | 22 | 152 | 4.8 | 8.0 | 0.00 | 0.00 | 0.00 | 80 | 1007.4 |
| 20260505054309 | 22 | 178 | 4.8 | 4.8 | 0.00 | 0.00 | 0.00 | 80 | 1007.5 |
| 20260505053807 | 22 | 155 | 9.7 | 12.9 | 0.00 | 0.00 | 0.00 | 80 | 1007.6 |
| 20260505053303 | 22 | 189 | 8.0 | 9.7 | 0.00 | 0.00 | 0.00 | 80 | 1007.7 |
| 20260505052800 | 22 | 180 | 4.8 | 4.8 | 0.00 | 0.00 | 0.00 | 79 | 1007.8 |
| 20260505052257 | 22 | 235 | 8.0 | 8.0 | 0.00 | 0.00 | 0.00 | 79 | 1007.8 |
| 20260505051754 | 22 | 212 | 11.3 | 12.9 | 0.00 | 0.00 | 0.00 | 79 | 1007.8 |
| 20260505051252 | 22 | 117 | 8.0 | 14.5 | 0.00 | 0.00 | 0.00 | 78 | 1007.9 |
| 20260505050750 | 22 | 170 | 11.3 | 16.1 | 0.00 | 0.00 | 0.00 | 78 | 1007.8 |
| 20260505050248 | 22 | 216 | 9.7 | 14.5 | 0.00 | 0.00 | 0.00 | 78 | 1008.0 |
| 20260505041718 | 23 | 174 | 9.7 | 11.3 | 0.00 | 0.00 | 0.00 | 75 | 1008.1 |
| 20260505041215 | 23 | 163 | 6.4 | 8.0 | 0.00 | 0.00 | 0.00 | 75 | 1008.1 |
| 20260505040712 | 23 | 170 | 8.0 | 11.3 | 0.00 | 0.00 | 0.00 | 75 | 1007.9 |
| 20260505040204 | 23 | 193 | 4.8 | 4.8 | 0.00 | 0.00 | 0.00 | 74 | 1008.0 |
| 20260505035700 | 23 | 155 | 12.9 | 17.7 | 0.00 | 0.00 | 0.00 | 74 | 1008.0 |
| 20260505035156 | 23 | 83 | 3.2 | 8.0 | 0.00 | 0.00 | 0.00 | 74 | 1007.9 |
| 20260505034653 | 23 | 169 | 11.3 | 12.9 | 0.00 | 0.00 | 0.00 | 74 | 1007.8 |
| 20260505034151 | 23 | 189 | 4.8 | 4.8 | 0.00 | 0.00 | 0.00 | 74 | 1007.6 |
| 20260505033646 | 23 | 193 | 4.8 | 4.8 | 0.00 | 0.00 | 0.00 | 73 | 1007.7 |
| 20260505033145 | 23 | 174 | 11.3 | 16.1 | 0.00 | 0.00 | 0.00 | 73 | 1008.0 |
| 20260505032643 | 23 | 154 | 8.0 | 11.3 | 0.00 | 0.00 | 0.00 | 73 | 1007.9 |
| 20260505032138 | 23 | 160 | 3.2 | 3.2 | 0.00 | 0.00 | 0.00 | 73 | 1007.8 |
| 20260505031636 | 23 | 121 | 8.0 | 9.7 | 0.00 | 0.00 | 0.00 | 73 | 1008.0 |
| 20260505031132 | 23 | 215 | 3.2 | 4.8 | 0.00 | 0.00 | 0.00 | 73 | 1007.9 |
| 20260505030629 | 23 | 149 | 9.7 | 12.9 | 0.00 | 0.00 | 0.00 | 72 | 1007.9 |
| 20260505030125 | 23 | 173 | 3.2 | 3.2 | 0.00 | 0.00 | 0.00 | 72 | 1007.8 |
| 20260505025620 | 23 | 182 | 1.6 | 1.6 | 0.00 | 0.00 | 0.00 | 72 | 1008.1 |
| 20260505025120 | 23 | 219 | 6.4 | 9.7 | 0.00 | 0.00 | 0.00 | 72 | 1008.0 |
| 20260505024617 | 23 | 173 | 3.2 | 8.0 | 0.00 | 0.00 | 0.00 | 72 | 1007.9 |
| 20260505024114 | 23 | 182 | 4.8 | 4.8 | 0.00 | 0.00 | 0.00 | 72 | 1008.0 |
| 20260505023611 | 23 | 194 | 8.0 | 11.3 | 0.00 | 0.00 | 0.00 | 71 | 1007.8 |
| 20260505023109 | 23 | 168 | 4.8 | 4.8 | 0.00 | 0.00 | 0.00 | 72 | 1007.5 |
| 20260505022606 | 23 | 153 | 4.8 | 8.0 | 0.00 | 0.00 | 0.00 | 72 | 1007.5 |
| 20260505022103 | 23 | 198 | 4.8 | 8.0 | 0.00 | 0.00 | 0.00 | 71 | 1007.9 |
| 20260505021559 | 23 | 173 | 3.2 | 3.2 | 0.00 | 0.00 | 0.00 | 71 | 1007.7 |
| 20260505021056 | 24 | 149 | 6.4 | 9.7 | 0.00 | 0.00 | 0.00 | 71 | 1007.7 |
| 20260505020556 | 24 | 175 | 9.7 | 11.3 | 0.00 | 0.00 | 0.00 | 70 | 1007.7 |
| 20260505020053 | 24 | 202 | 11.3 | 16.1 | 0.00 | 0.00 | 0.00 | 71 | 1007.6 |
| 20260505015550 | 24 | 212 | 6.4 | 9.7 | 0.00 | 0.00 | 0.00 | 70 | 1007.8 |
| 20260505015047 | 24 | 143 | 4.8 | 11.3 | 0.00 | 0.00 | 0.00 | 70 | 1007.8 |
| 20260505014544 | 24 | 195 | 4.8 | 11.3 | 0.00 | 0.00 | 0.00 | 70 | 1007.6 |
| 20260505014041 | 24 | 167 | 3.2 | 4.8 | 0.00 | 0.00 | 0.00 | 69 | 1007.6 |
| 20260505013538 | 24 | 188 | 4.8 | 12.9 | 0.00 | 0.00 | 0.00 | 69 | 1007.8 |
| 20260505013036 | 24 | 172 | 9.7 | 14.5 | 0.00 | 0.00 | 0.00 | 69 | 1007.8 |
| 20260505012533 | 24 | 201 | 11.3 | 16.1 | 0.00 | 0.00 | 0.00 | 69 | 1007.9 |
| 20260505012030 | 25 | 171 | 3.2 | 4.8 | 0.00 | 0.00 | 0.00 | 68 | 1007.7 |
| 20260505011526 | 25 | 175 | 11.3 | 14.5 | 0.00 | 0.00 | 0.00 | 68 | 1007.6 |
| 20260505011023 | 25 | 190 | 9.7 | 12.9 | 0.00 | 0.00 | 0.00 | 68 | 1007.9 |
| 20260505010518 | 25 | 177 | 4.8 | 4.8 | 0.00 | 0.00 | 0.00 | 68 | 1007.6 |
| 20260505010015 | 25 | 176 | 11.3 | 16.1 | 0.00 | 0.00 | 0.00 | 67 | 1007.6 |
| 20260505005512 | 25 | 180 | 14.5 | 17.7 | 0.00 | 0.00 | 0.00 | 67 | 1007.5 |
| 20260505005009 | 25 | 159 | 11.3 | 16.1 | 0.00 | 0.00 | 0.00 | 67 | 1007.6 |
| 20260505004506 | 25 | 172 | 9.7 | 14.5 | 0.00 | 0.00 | 0.00 | 67 | 1007.7 |
| 20260505004003 | 25 | 174 | 4.8 | 4.8 | 0.00 | 0.00 | 0.00 | 66 | 1007.9 |
| 20260505003500 | 25 | 195 | 11.3 | 16.1 | 0.00 | 0.00 | 0.00 | 66 | 1008.0 |
| 20260505002956 | 25 | 177 | 8.0 | 12.9 | 0.00 | 0.00 | 0.00 | 66 | 1007.8 |
| 20260505002452 | 25 | 224 | 9.7 | 12.9 | 0.00 | 0.00 | 0.00 | 65 | 1007.8 |
| 20260505001951 | 25 | 103 | 14.5 | 17.7 | 0.00 | 0.00 | 0.00 | 65 | 1007.7 |
| 20260505001448 | 25 | 181 | 8.0 | 11.3 | 0.00 | 0.00 | 0.00 | 64 | 1008.0 |
| 20260505000945 | 25 | 199 | 6.4 | 9.7 | 0.00 | 0.00 | 0.00 | 64 | 1007.8 |
| 20260505000443 | 25 | 176 | 4.8 | 4.8 | 0.00 | 0.00 | 0.00 | 64 | 1007.8 |
| 20260504235940 | 25 | 226 | 14.5 | 22.5 | 0.00 | 0.00 | 0.00 | 64 | 1007.8 |
| 20260504235437 | 26 | 184 | 8.0 | 17.7 | 0.00 | 0.00 | 0.00 | 64 | 1007.9 |
| 20260504234933 | 26 | 186 | 17.7 | 29.0 | 0.00 | 0.00 | 0.00 | 64 | 1008.1 |
| 20260504234431 | 26 | 214 | 8.0 | 11.3 | 0.00 | 0.00 | 0.00 | 64 | 1008.2 |
| 20260504233927 | 26 | 234 | 9.7 | 14.5 | 0.00 | 0.00 | 0.00 | 63 | 1008.0 |
| 20260504233423 | 26 | 151 | 11.3 | 16.1 | 0.00 | 0.00 | 0.00 | 63 | 1008.2 |
| 20260504232920 | 26 | 180 | 8.0 | 9.7 | 0.00 | 0.00 | 0.00 | 62 | 1008.1 |
| 20260504232417 | 26 | 175 | 9.7 | 12.9 | 0.00 | 0.00 | 0.00 | 62 | 1008.1 |
| 20260504231914 | 26 | 179 | 8.0 | 12.9 | 0.00 | 0.00 | 0.00 | 62 | 1008.0 |
| 20260504231410 | 26 | 181 | 16.1 | 20.9 | 0.00 | 0.00 | 0.00 | 62 | 1008.4 |
| 20260504230907 | 26 | 154 | 6.4 | 8.0 | 0.00 | 0.00 | 0.00 | 61 | 1008.4 |
| 20260504230404 | 26 | 201 | 14.5 | 20.9 | 0.00 | 0.00 | 0.00 | 60 | 1008.5 |
| 20260504225903 | 27 | 178 | 6.4 | 12.9 | 0.00 | 0.00 | 0.00 | 60 | 1008.4 |
| 20260504225359 | 26 | 183 | 8.0 | 11.3 | 0.00 | 0.00 | 0.00 | 60 | 1008.4 |
| 20260504224856 | 26 | 169 | 4.8 | 9.7 | 0.00 | 0.00 | 0.00 | 60 | 1008.6 |
| 20260504224352 | 27 | 177 | 17.7 | 25.7 | 0.00 | 0.00 | 0.00 | 60 | 1008.6 |
| 20260504223849 | 26 | 166 | 12.9 | 16.1 | 0.00 | 0.00 | 0.00 | 60 | 1008.6 |
| 20260504223345 | 27 | 166 | 14.5 | 17.7 | 0.00 | 0.00 | 0.00 | 60 | 1008.5 |
| 20260504222842 | 26 | 214 | 6.4 | 8.0 | 0.00 | 0.00 | 0.00 | 61 | 1008.4 |
| 20260504222338 | 26 | 209 | 6.4 | 12.9 | 0.00 | 0.00 | 0.00 | 61 | 1008.6 |
| 20260504221837 | 26 | 204 | 16.1 | 20.9 | 0.00 | 0.00 | 0.00 | 60 | 1008.7 |
| 20260504221333 | 26 | 196 | 8.0 | 17.7 | 0.00 | 0.00 | 0.00 | 60 | 1008.7 |
| 20260504220831 | 27 | 197 | 6.4 | 8.0 | 0.00 | 0.00 | 0.00 | 59 | 1008.9 |
| 20260504220327 | 27 | 185 | 14.5 | 25.7 | 0.00 | 0.00 | 0.00 | 58 | 1009.0 |
| 20260504215825 | 27 | 152 | 14.5 | 17.7 | 0.00 | 0.00 | 0.00 | 58 | 1009.1 |
| 20260504215321 | 27 | 162 | 4.8 | 8.0 | 0.00 | 0.00 | 0.00 | 58 | 1008.9 |
| 20260504214817 | 27 | 205 | 16.1 | 24.1 | 0.00 | 0.00 | 0.00 | 58 | 1009.0 |
| 20260504214314 | 27 | 175 | 4.8 | 8.0 | 0.00 | 0.00 | 0.00 | 58 | 1009.2 |
| 20260504213810 | 27 | 222 | 20.9 | 35.4 | 0.00 | 0.00 | 0.00 | 58 | 1009.4 |
| 20260504213306 | 27 | 209 | 9.7 | 17.7 | 0.00 | 0.00 | 0.00 | 57 | 1009.0 |
| 20260504212804 | 27 | 155 | 11.3 | 17.7 | 0.00 | 0.00 | 0.00 | 56 | 1009.2 |
| 20260504212300 | 27 | 142 | 6.4 | 12.9 | 0.00 | 0.00 | 0.00 | 57 | 1009.3 |
| 20260504211758 | 27 | 148 | 19.3 | 25.7 | 0.00 | 0.00 | 0.00 | 57 | 1009.6 |
| 20260504211254 | 27 | 204 | 9.7 | 14.5 | 0.00 | 0.00 | 0.00 | 58 | 1009.6 |
| 20260504210751 | 27 | 179 | 14.5 | 20.9 | 0.00 | 0.00 | 0.00 | 57 | 1009.5 |
| 20260504210248 | 27 | 144 | 9.7 | 12.9 | 0.00 | 0.00 | 0.00 | 57 | 1009.5 |
| 20260504205745 | 27 | 188 | 11.3 | 16.1 | 0.00 | 0.00 | 0.00 | 57 | 1009.9 |
| 20260504205243 | 27 | 186 | 11.3 | 14.5 | 0.00 | 0.00 | 0.00 | 57 | 1009.8 |
| 20260504204741 | 27 | 96 | 8.0 | 12.9 | 0.00 | 0.00 | 0.00 | 57 | 1010.2 |
| 20260504204239 | 27 | 189 | 17.7 | 20.9 | 0.00 | 0.00 | 0.00 | 56 | 1009.9 |
| 20260504203738 | 27 | 158 | 8.0 | 12.9 | 0.00 | 0.00 | 0.00 | 56 | 1010.1 |
| 20260504203235 | 27 | 250 | 6.4 | 9.7 | 0.00 | 0.00 | 0.00 | 56 | 1010.0 |
| 20260504202735 | 27 | 177 | 8.0 | 9.7 | 0.00 | 0.00 | 0.00 | 56 | 1010.4 |
| 20260504202233 | 27 | 174 | 11.3 | 14.5 | 0.00 | 0.00 | 0.00 | 56 | 1010.4 |
| 20260504201730 | 27 | 197 | 16.1 | 22.5 | 0.00 | 0.00 | 0.00 | 54 | 1010.7 |
| 20260504201227 | 27 | 185 | 6.4 | 8.0 | 0.00 | 0.00 | 0.00 | 55 | 1010.6 |
| 20260504200725 | 27 | 194 | 12.9 | 17.7 | 0.00 | 0.00 | 0.00 | 55 | 1011.0 |
| 20260504200220 | 27 | 195 | 3.2 | 3.2 | 0.00 | 0.00 | 0.00 | 54 | 1011.2 |
| 20260504195717 | 26 | 158 | 17.7 | 20.9 | 0.00 | 0.00 | 0.00 | 55 | 1011.1 |
| 20260504195213 | 26 | 209 | 3.2 | 3.2 | 0.00 | 0.00 | 0.00 | 56 | 1011.1 |
| 20260504194710 | 27 | 203 | 11.3 | 14.5 | 0.00 | 0.00 | 0.00 | 54 | 1011.2 |
| 20260504194206 | 27 | 174 | 4.8 | 8.0 | 0.00 | 0.00 | 0.00 | 54 | 1011.3 |
| 20260504193702 | 26 | 180 | 11.3 | 20.9 | 0.00 | 0.00 | 0.00 | 54 | 1011.5 |
| 20260504193200 | 26 | 198 | 11.3 | 17.7 | 0.00 | 0.00 | 0.00 | 54 | 1011.4 |
| 20260504192658 | 26 | 196 | 3.2 | 4.8 | 0.00 | 0.00 | 0.00 | 55 | 1011.5 |
| 20260504192156 | 27 | 246 | 8.0 | 12.9 | 0.00 | 0.00 | 0.00 | 53 | 1011.7 |
| 20260504191654 | 27 | 189 | 1.6 | 3.2 | 0.00 | 0.00 | 0.00 | 54 | 1011.7 |
| 20260504191150 | 27 | 149 | 6.4 | 12.9 | 0.00 | 0.00 | 0.00 | 54 | 1012.0 |
| 20260504190646 | 26 | 221 | 4.8 | 8.0 | 0.00 | 0.00 | 0.00 | 55 | 1011.8 |
| 20260504190143 | 26 | 203 | 9.7 | 12.9 | 0.00 | 0.00 | 0.00 | 54 | 1012.2 |
| 20260504185639 | 26 | 202 | 6.4 | 8.0 | 0.00 | 0.00 | 0.00 | 54 | 1011.9 |
| 20260504185136 | 26 | 214 | 3.2 | 4.8 | 0.00 | 0.00 | 0.00 | 54 | 1011.9 |
| 20260504184632 | 27 | 146 | 8.0 | 9.7 | 0.00 | 0.00 | 0.00 | 53 | 1012.0 |
| 20260504184127 | 26 | 169 | 8.0 | 12.9 | 0.00 | 0.00 | 0.00 | 53 | 1012.1 |
| 20260504183624 | 26 | 181 | 14.5 | 17.7 | 0.00 | 0.00 | 0.00 | 53 | 1012.1 |
| 20260504183122 | 26 | 207 | 16.1 | 20.9 | 0.00 | 0.00 | 0.00 | 53 | 1012.3 |
| 20260504182620 | 26 | 84 | 6.4 | 9.7 | 0.00 | 0.00 | 0.00 | 52 | 1012.3 |
| 20260504182117 | 26 | 200 | 12.9 | 24.1 | 0.00 | 0.00 | 0.00 | 52 | 1012.4 |
| 20260504181614 | 26 | 200 | 4.8 | 9.7 | 0.00 | 0.00 | 0.00 | 50 | 1012.7 |
| 20260504181111 | 26 | 154 | 9.7 | 14.5 | 0.00 | 0.00 | 0.00 | 51 | 1012.4 |
| 20260504180611 | 26 | 131 | 8.0 | 9.7 | 0.00 | 0.00 | 0.00 | 51 | 1012.5 |
| 20260504180109 | 26 | 190 | 9.7 | 14.5 | 0.00 | 0.00 | 0.00 | 50 | 1012.3 |
| 20260504175606 | 26 | 148 | 20.9 | 24.1 | 0.00 | 0.00 | 0.00 | 50 | 1012.6 |
| 20260504175103 | 25 | 146 | 9.7 | 14.5 | 0.00 | 0.00 | 0.00 | 50 | 1012.8 |
| 20260504174601 | 25 | 134 | 6.4 | 14.5 | 0.00 | 0.00 | 0.00 | 50 | 1013.1 |
| 20260504174057 | 25 | 251 | 4.8 | 4.8 | 0.00 | 0.00 | 0.00 | 50 | 1013.1 |
| 20260504173554 | 25 | 176 | 3.2 | 8.0 | 0.00 | 0.00 | 0.00 | 51 | 1013.0 |
| 20260504173052 | 25 | 189 | 11.3 | 20.9 | 0.00 | 0.00 | 0.00 | 50 | 1013.1 |
| 20260504172547 | 25 | 209 | 11.3 | 12.9 | 0.00 | 0.00 | 0.00 | 49 | 1013.1 |
| 20260504172044 | 24 | 218 | 11.3 | 14.5 | 0.00 | 0.00 | 0.00 | 52 | 1012.9 |
| 20260504171541 | 25 | 148 | 11.3 | 12.9 | 0.00 | 0.00 | 0.00 | 50 | 1013.2 |
| 20260504171038 | 25 | 155 | 8.0 | 11.3 | 0.00 | 0.00 | 0.00 | 51 | 1013.5 |
| 20260504170534 | 24 | 179 | 4.8 | 8.0 | 0.00 | 0.00 | 0.00 | 52 | 1013.5 |
| 20260504150918 | 21 | 169 | 8.0 | 9.7 | 0.00 | 0.00 | 0.00 | 64 | 1014.7 |
| 20260504150414 | 21 | 203 | 11.3 | 14.5 | 0.00 | 0.00 | 0.00 | 65 | 1014.7 |
| 20260504140841 | 20 | 180 | 11.3 | 14.5 | 0.00 | 0.00 | 0.00 | 70 | 1015.3 |
| 20260504140337 | 19 | 189 | 8.0 | 9.7 | 0.00 | 0.00 | 0.00 | 70 | 1015.1 |